RYR84K LEAM-EBCI

Flight info

Callsign RYR84K
Flight time N/A
Altitude 34000
Route ESILA N865 VTB DCT RBO DCT OSTIX DCT GASMO DCT DGO N858 ABRIX DCT CNA DCT ADABI DCT BOKNO UN858 VANAD UN874 BAMES UT191 PODEM UN873 BAZOS DCT BELDI DCT VEKIN Z173 ARVOL
Aircraft B738/M-SDE3FGILRWY/SB1

Departure

Time 2026-04-17 13:46
Airport Almería Airport (LEAM)

Arrival

Time N/A
Airport Brussels South Charleroi Airport (EBCI)
Time Latitude Longitude Altitude Speed Heading
2026-04-17 13:20 36.84674 -2.37154 69 ft 0 kts 145°
2026-04-17 13:41 36.84673 -2.37153 68 ft 1 kts 147°
2026-04-17 13:41 36.84650 -2.37145 62 ft 4 kts 166°
2026-04-17 13:41 36.84623 -2.37123 64 ft 5 kts 115°
2026-04-17 13:41 36.84630 -2.37067 63 ft 8 kts 73°
2026-04-17 13:42 36.84647 -2.36999 63 ft 8 kts 73°
2026-04-17 13:42 36.84636 -2.36927 59 ft 10 kts 123°
2026-04-17 13:42 36.84613 -2.36839 60 ft 11 kts 84°
2026-04-17 13:42 36.84633 -2.36749 63 ft 11 kts 72°
2026-04-17 13:43 36.84661 -2.36643 61 ft 18 kts 71°
2026-04-17 13:43 36.84700 -2.36487 57 ft 19 kts 73°
2026-04-17 13:43 36.84735 -2.36336 65 ft 18 kts 74°
2026-04-17 13:43 36.84771 -2.36189 62 ft 17 kts 72°
2026-04-17 13:44 36.84807 -2.36046 62 ft 17 kts 73°
2026-04-17 13:44 36.84841 -2.35911 58 ft 16 kts 72°
2026-04-17 13:44 36.84874 -2.35779 57 ft 16 kts 73°
2026-04-17 13:44 36.84905 -2.35652 60 ft 15 kts 73°
2026-04-17 13:45 36.84934 -2.35531 62 ft 14 kts 73°
2026-04-17 13:45 36.84952 -2.35413 64 ft 14 kts 96°
2026-04-17 13:45 36.84894 -2.35329 57 ft 13 kts 158°
2026-04-17 13:45 36.84810 -2.35350 55 ft 14 kts 232°
2026-04-17 13:46 36.84741 -2.35599 60 ft 61 kts 253°
2026-04-17 13:46 36.84544 -2.36406 58 ft 129 kts 253°
2026-04-17 13:46 36.84235 -2.37686 235 ft 169 kts 252°
2026-04-17 13:46 36.83896 -2.39071 1059 ft 169 kts 252°
2026-04-17 13:47 36.83546 -2.40556 1654 ft 192 kts 252°
2026-04-17 13:47 36.83132 -2.42250 2046 ft 212 kts 251°
2026-04-17 13:47 36.82680 -2.44049 2535 ft 220 kts 252°
2026-04-17 13:47 36.82212 -2.45906 2998 ft 228 kts 252°
2026-04-17 13:48 36.81748 -2.47856 3408 ft 243 kts 259°
2026-04-17 13:48 36.81937 -2.50014 3614 ft 264 kts 297°
2026-04-17 13:48 36.83110 -2.51773 4103 ft 271 kts 319°
2026-04-17 13:48 36.84540 -2.53349 4739 ft 275 kts 320°
2026-04-17 13:49 36.85995 -2.54943 5448 ft 278 kts 319°
2026-04-17 13:49 36.87431 -2.56551 6162 ft 281 kts 319°
2026-04-17 13:49 36.88882 -2.58205 6847 ft 284 kts 318°
2026-04-17 13:49 36.89868 -2.59343 7333 ft 284 kts 318°
2026-04-17 13:50 36.93169 -2.63201 9050 ft 286 kts 317°
2026-04-17 13:50 36.94620 -2.64901 9818 ft 287 kts 317°
2026-04-17 13:50 36.96061 -2.66599 10512 ft 289 kts 317°
2026-04-17 13:51 36.97532 -2.68341 11180 ft 292 kts 317°
2026-04-17 13:51 36.99020 -2.70106 11874 ft 296 kts 316°
2026-04-17 13:51 37.00518 -2.71889 12610 ft 298 kts 316°
2026-04-17 13:51 37.02033 -2.73698 13344 ft 302 kts 316°
2026-04-17 13:52 37.03563 -2.75522 14052 ft 306 kts 317°
2026-04-17 13:52 37.05358 -2.76889 14658 ft 310 kts 343°
2026-04-17 13:52 37.07554 -2.77240 14942 ft 329 kts
2026-04-17 13:52 37.09919 -2.77029 15137 ft 351 kts
2026-04-17 13:53 37.12403 -2.76737 15522 ft 363 kts
2026-04-17 13:53 37.14940 -2.76419 16160 ft 367 kts
2026-04-17 13:53 37.17462 -2.76104 16853 ft 370 kts
2026-04-17 13:53 37.20042 -2.75788 17513 ft 374 kts
2026-04-17 13:54 37.25266 -2.74945 18797 ft 382 kts 11°
2026-04-17 13:54 37.27864 -2.74179 19411 ft 384 kts 13°
2026-04-17 13:55 37.33064 -2.72519 20566 ft 390 kts 13°
2026-04-17 13:55 37.35714 -2.71672 21132 ft 393 kts 13°
2026-04-17 13:55 37.41064 -2.69992 22252 ft 399 kts 13°
2026-04-17 13:56 37.46510 -2.68310 23327 ft 405 kts 13°
2026-04-17 13:56 37.49262 -2.67465 23835 ft 408 kts 13°
2026-04-17 13:56 37.52041 -2.66613 24276 ft 411 kts 13°
2026-04-17 13:57 37.54800 -2.65767 24703 ft 414 kts 13°
2026-04-17 13:57 37.57613 -2.64905 25136 ft 417 kts 13°
2026-04-17 13:57 37.62330 -2.63457 25830 ft 421 kts 13°
2026-04-17 13:58 37.66134 -2.62287 26333 ft 425 kts 13°
2026-04-17 13:58 37.70953 -2.60806 26957 ft 431 kts 13°
2026-04-17 13:58 37.73888 -2.59901 27344 ft 433 kts 13°
2026-04-17 13:59 37.79760 -2.58089 28066 ft 439 kts 13°
2026-04-17 13:59 37.82750 -2.57165 28406 ft 442 kts 13°
2026-04-17 13:59 37.85762 -2.56234 28747 ft 445 kts 13°
2026-04-17 14:00 37.88785 -2.55298 29075 ft 448 kts 13°
2026-04-17 14:00 37.91827 -2.54356 29443 ft 450 kts 13°
2026-04-17 14:00 37.94839 -2.53422 29834 ft 450 kts 13°
2026-04-17 14:00 37.97878 -2.52479 30381 ft 447 kts 13°
2026-04-17 14:01 38.00901 -2.51541 30764 ft 446 kts 13°
2026-04-17 14:01 38.03807 -2.50638 31073 ft 448 kts 13°
2026-04-17 14:01 38.06838 -2.49696 31417 ft 448 kts 13°
2026-04-17 14:01 38.09864 -2.48754 31801 ft 446 kts 13°
2026-04-17 14:02 38.12877 -2.47815 32164 ft 446 kts 13°
2026-04-17 14:02 38.15857 -2.46886 32477 ft 447 kts 13°
2026-04-17 14:02 38.18890 -2.45940 32797 ft 447 kts 13°
2026-04-17 14:02 38.21917 -2.44994 33139 ft 446 kts 13°
2026-04-17 14:03 38.24936 -2.44051 33461 ft 447 kts 13°
2026-04-17 14:03 38.27966 -2.43103 33763 ft 447 kts 13°
2026-04-17 14:03 38.30987 -2.42157 34077 ft 447 kts 13°
2026-04-17 14:04 38.37052 -2.40256 34164 ft 457 kts 13°
2026-04-17 14:04 38.43288 -2.38298 34165 ft 463 kts 13°
2026-04-17 14:05 38.49582 -2.36317 34155 ft 465 kts 13°
2026-04-17 14:05 38.55771 -2.34365 34141 ft 456 kts 13°
2026-04-17 14:06 38.61919 -2.32424 34158 ft 457 kts 13°
2026-04-17 14:06 38.68121 -2.30462 34158 ft 458 kts 13°
2026-04-17 14:07 38.74325 -2.28497 34159 ft 459 kts 13°
2026-04-17 14:07 38.80513 -2.26533 34160 ft 460 kts 13°
2026-04-17 14:08 38.86712 -2.24561 34166 ft 461 kts 13°
2026-04-17 14:08 38.92936 -2.22578 34170 ft 461 kts 13°
2026-04-17 14:09 38.99188 -2.20583 34167 ft 462 kts 12°
2026-04-17 14:09 39.05403 -2.18596 34165 ft 462 kts 13°
2026-04-17 14:10 39.11675 -2.16587 34161 ft 462 kts 12°
2026-04-17 14:10 39.17892 -2.14591 34165 ft 462 kts 12°
2026-04-17 14:11 39.24130 -2.12585 34157 ft 461 kts 12°
2026-04-17 14:11 39.30363 -2.10578 34168 ft 460 kts 12°
2026-04-17 14:12 39.36555 -2.08580 34166 ft 459 kts 12°
2026-04-17 14:12 39.42759 -2.06574 34166 ft 459 kts 12°
2026-04-17 14:13 39.52014 -2.03575 34154 ft 458 kts 12°
2026-04-17 14:13 39.58176 -2.01574 34158 ft 457 kts 12°
2026-04-17 14:14 39.64345 -1.99568 34154 ft 456 kts 12°
2026-04-17 14:14 39.70510 -1.97558 34162 ft 456 kts 12°
2026-04-17 14:15 39.76677 -1.95544 34161 ft 456 kts 12°
2026-04-17 14:15 39.82795 -1.93543 34161 ft 456 kts 12°
2026-04-17 14:16 39.88971 -1.91519 34163 ft 456 kts 12°
2026-04-17 14:16 39.95108 -1.89503 34164 ft 456 kts 12°
2026-04-17 14:17 40.01229 -1.87490 34163 ft 457 kts 12°
2026-04-17 14:17 40.07403 -1.85455 34167 ft 457 kts 12°
2026-04-17 14:18 40.13591 -1.83412 34164 ft 458 kts 12°
2026-04-17 14:18 40.19740 -1.81378 34178 ft 458 kts 12°
2026-04-17 14:19 40.25926 -1.79327 34178 ft 458 kts 12°
2026-04-17 14:19 40.32078 -1.77284 34181 ft 458 kts 12°
2026-04-17 14:20 40.38269 -1.75225 34181 ft 458 kts 12°
2026-04-17 14:20 40.44464 -1.73160 34167 ft 459 kts 12°
2026-04-17 14:21 40.50646 -1.71095 34168 ft 458 kts 12°
2026-04-17 14:21 40.56796 -1.69037 34164 ft 458 kts 12°
2026-04-17 14:22 40.62977 -1.66965 34162 ft 457 kts 12°
2026-04-17 14:22 40.69138 -1.64896 34153 ft 457 kts 12°
2026-04-17 14:23 40.75296 -1.62824 34151 ft 457 kts 12°
2026-04-17 14:23 40.81475 -1.60741 34147 ft 457 kts 12°
2026-04-17 14:24 40.87611 -1.58668 34141 ft 457 kts 12°
2026-04-17 14:24 40.93766 -1.56584 34141 ft 457 kts 12°
2026-04-17 14:25 40.99913 -1.54500 34137 ft 457 kts 12°
2026-04-17 14:25 41.06089 -1.52402 34139 ft 457 kts 12°
2026-04-17 14:26 41.12243 -1.50307 34128 ft 457 kts 12°
2026-04-17 14:26 41.18428 -1.48197 34133 ft 458 kts 12°
2026-04-17 14:27 41.24561 -1.46101 34127 ft 458 kts 12°
2026-04-17 14:27 41.30744 -1.43984 34130 ft 459 kts 12°
2026-04-17 14:28 41.36928 -1.41863 34124 ft 460 kts 12°
2026-04-17 14:28 41.43087 -1.39746 34124 ft 461 kts 12°
2026-04-17 14:29 41.49315 -1.37600 34140 ft 461 kts 12°
2026-04-17 14:29 41.55506 -1.35463 34121 ft 462 kts 12°
2026-04-17 14:30 41.61734 -1.33310 34128 ft 462 kts 12°
2026-04-17 14:30 41.67980 -1.31146 34128 ft 462 kts 12°
2026-04-17 14:31 41.74178 -1.28994 34115 ft 462 kts 12°
2026-04-17 14:31 41.80406 -1.26827 34137 ft 461 kts 12°
2026-04-17 14:32 41.86628 -1.24658 34117 ft 462 kts 12°
2026-04-17 14:32 41.92829 -1.22491 34129 ft 462 kts 12°
2026-04-17 14:33 41.99058 -1.20312 34115 ft 462 kts 12°
2026-04-17 14:33 42.05287 -1.18128 34119 ft 462 kts 12°
2026-04-17 14:34 42.11485 -1.15950 34117 ft 462 kts 12°
2026-04-17 14:34 42.17710 -1.13757 34113 ft 462 kts 12°
2026-04-17 14:35 42.23952 -1.11555 34118 ft 462 kts 12°
2026-04-17 14:35 42.30140 -1.09368 34118 ft 462 kts 12°
2026-04-17 14:36 42.36372 -1.07159 34121 ft 462 kts 12°
2026-04-17 14:36 42.42560 -1.04963 34123 ft 462 kts 12°
2026-04-17 14:37 42.48776 -1.02751 34123 ft 461 kts 12°
2026-04-17 14:37 42.54953 -1.00549 34126 ft 461 kts 11°
2026-04-17 14:38 42.61162 -0.98332 34122 ft 461 kts 11°
2026-04-17 14:38 42.67393 -0.96101 34128 ft 461 kts 11°
2026-04-17 14:39 42.73563 -0.93888 34142 ft 461 kts 11°
2026-04-17 14:39 42.79783 -0.91653 34148 ft 462 kts 11°
2026-04-17 14:40 42.86016 -0.89408 34135 ft 462 kts 11°
2026-04-17 14:40 42.92204 -0.87174 34143 ft 462 kts 11°
2026-04-17 14:41 42.97366 -0.85308 34165 ft 461 kts 11°
2026-04-17 14:41 43.03607 -0.83047 34165 ft 462 kts 11°
2026-04-17 14:42 43.09828 -0.80788 34159 ft 462 kts 11°
2026-04-17 14:42 43.16063 -0.78519 34149 ft 461 kts 11°
2026-04-17 14:43 43.22233 -0.76311 34142 ft 460 kts 10°
2026-04-17 14:43 43.28459 -0.74187 34139 ft 459 kts 10°
2026-04-17 14:44 43.34636 -0.72088 34138 ft 458 kts 10°
2026-04-17 14:44 43.40837 -0.69961 34142 ft 458 kts 10°
2026-04-17 14:45 43.46986 -0.67840 34138 ft 457 kts 10°
2026-04-17 14:45 43.53169 -0.65699 34141 ft 457 kts 10°
2026-04-17 14:46 43.59356 -0.63552 34136 ft 457 kts 10°
2026-04-17 14:46 43.65488 -0.61419 34149 ft 456 kts 10°
2026-04-17 14:47 43.71647 -0.59274 34142 ft 456 kts 10°
2026-04-17 14:47 43.77817 -0.57120 34129 ft 456 kts 10°
2026-04-17 14:48 43.83931 -0.54982 34129 ft 456 kts 10°
2026-04-17 14:48 43.90104 -0.52817 34133 ft 456 kts 10°
2026-04-17 14:49 43.96225 -0.50667 34131 ft 456 kts 10°
2026-04-17 14:49 44.02158 -0.48578 34134 ft 456 kts 10°
2026-04-17 14:50 44.08330 -0.46401 34130 ft 456 kts 10°
2026-04-17 14:50 44.14444 -0.44239 34137 ft 456 kts 10°
2026-04-17 14:51 44.20617 -0.42052 34141 ft 456 kts 10°
2026-04-17 14:51 44.26781 -0.39863 34140 ft 456 kts 10°
2026-04-17 14:52 44.32903 -0.37684 34135 ft 456 kts 10°
2026-04-17 14:52 44.39081 -0.35481 34140 ft 457 kts 10°
2026-04-17 14:53 44.44647 -0.33492 34140 ft 457 kts 11°
2026-04-17 14:53 44.50773 -0.31298 34139 ft 457 kts 10°
2026-04-17 14:54 44.56945 -0.29083 34142 ft 457 kts 11°
2026-04-17 14:54 44.63112 -0.26864 34146 ft 457 kts 11°
2026-04-17 14:55 44.69253 -0.24651 34142 ft 457 kts 11°
2026-04-17 14:55 44.75388 -0.22434 34141 ft 456 kts 11°
2026-04-17 14:56 44.81533 -0.20209 34147 ft 456 kts 11°
2026-04-17 14:56 44.87698 -0.17972 34146 ft 455 kts 11°
2026-04-17 14:57 44.93816 -0.15747 34141 ft 455 kts 11°
2026-04-17 14:57 44.99957 -0.13509 34139 ft 455 kts 11°
2026-04-17 14:58 45.06107 -0.11263 34149 ft 455 kts 11°
2026-04-17 14:58 45.11220 -0.09391 34147 ft 455 kts 11°